SCP
0 0 0 0 1 1 1 1 1 1 1 1 2 2 2 2 2 2 2 2 2 2 2 2 2 2 1 1 1 1 1 1 1 1 1 1 0 0 1 1 1 0 0
0 0 0 0 0 1 1 1 1 1 1 1 2 2 2 2 2 2 2 2 1 1 1 1 1 1 1 1 1 1 1 1 1 1 1 0 0 0 0 0 0 0 0
0 0 0 0 0 1 1 1 1 1 1 1 1 2 2 2 2 2 1 1 1 1 1 1 1 1 1 1 1 1 1 1 1 1 1 1 0 0 0 0 0 0 0
0 0 0 0 0 0 1 1 1 1 1 1 1 1 1 1 1 1 1 1 1 1 1 1 1 1 1 1 1 1 1 1 1 1 1 1 1 0 0 0 0 0 0
0 0 0 0 0 0 0 1 1 1 1 1 1 1 1 1 1 1 1 1 1 1 1 1 1 1 1 1 1 1 1 1 1 1 1 1 1 0 0 0 0 0 0
0 0 0 0 0 0 0 0 0 1 1 1 1 1 1 1 1 1 1 1 1 1 1 1 1 1 1 1 1 1 1 1 1 1 1 1 0 0 0 0 0 0 0
0 0 0 0 0 0 0 0 0 0 0 1 1 1 1 1 1 1 1 1 1 1 1 1 1 1 1 1 1 1 1 1 1 1 1 0 0 0 0 0 0 0 0
0 0 0 0 0 0 0 0 0 0 0 0 0 0 0 0 0 0 0 0 0 0 0 0 0 0 1 1 1 1 1 1 1 1 0 0 0 0 0 0 0 0 0
0 0 0 0 0 0 0 0 0 0 0 0 0 0 0 0 0 0 0 0 0 0 0 0 0 0 0 0 0 0 0 0 0 0 0 0 0 0 0 0 0 0 0
0 0 0 0 0 0 0 0 0 0 0 0 0 0 0 0 0 0 0 0 0 0 0 0 0 0 0 0 0 0 0 0 0 0 0 0 0 0 0 0 0 0 0
0 0 0 0 0 0 0 0 0 0 0 0 0 0 0 0 0 0 0 0 0 0 0 0 0 0 0 0 0 0 0 0 0 0 0 0 0 0 0 0 0 0 0
0 0 0 0 0 0 0 0 0 0 0 0 0 0 0 0 0 0 0 0 0 0 0 0 0 0 0 0 0 0 0 0 0 0 0 0 0 0 0 0 0 0 0
0 0 0 0 0 0 0 0 0 0 0 0 0 0 0 0 0 0 0 0 0 0 0 0 0 0 0 0 0 0 0 0 0 0 0 0 0 0 0 0 0 0 0
0 0 0 0 0 0 0 0 0 0 0 0 0 0 0 0 0 0 0 0 0 0 0 0 0 0 0 0 0 0 0 0 0 0 0 0 0 0 0 0 0 0 0
0 0 0 0 0 0 0 0 0 0 0 0 0 0 0 0 0 0 0 0 0 0 0 0 0 0 0 0 0 0 0 0 0 0 0 0 0 0 0 0 0 0 0
0 0 0 0 0 0 0 0 0 0 0 0 0 0 0 0 0 0 0 0 0 0 0 0 0 0 0 0 0 0 0 0 0 0 0 0 0 0 0 0 0 0 0
0 0 0 0 0 0 0 0 0 0 0 0 0 0 0 0 0 0 0 0 0 0 0 0 0 0 0 0 0 0 0 0 0 0 0 0 0 0 0 0 0 0 0
0 0 0 0 0 0 0 0 0 0 0 0 0 0 0 0 0 0 0 0 0 0 0 0 0 0 0 0 0 0 0 0 0 0 0 0 0 0 0 0 0 0 0
0 0 0 0 0 0 0 0 0 0 0 0 0 0 0 0 0 0 0 0 0 0 0 0 0 0 0 0 0 0 0 0 0 0 0 0 0 0 0 0 0 0 0
0 0 0 0 0 0 0 0 0 0 0 0 0 0 0 0 0 0 0 0 0 0 0 0 0 0 0 0 0 0 0 0 0 0 0 0 0 0 0 0 0 0 0
0 0 0 0 0 0 0 0 0 0 0 0 0 0 0 0 0 0 0 0 0 0 0 0 0 0 0 0 0 0 0 0 0 0 0 0 0 0 0 0 0 0 0
0 0 0 0 0 0 0 0 0 0 0 0 0 0 0 0 0 0 0 0 -0 -0 0 0 0 0 0 0 0 0 0 0 0 0 0 0 0 0 0 0 0 0 0
0 0 0 0 0 0 0 0 0 0 0 0 0 0 0 0 0 0 0 0 -0 0 0 0 0 0 0 0 0 0 0 0 0 0 0 0 -0 0 0 0 0 0 0
0 0 0 0 0 0 0 0 0 0 0 0 0 0 0 0 0 0 0 0 0 0 0 0 0 0 0 0 0 0 0 0 0 0 0 0 0 0 0 0 0 0 0
0 0 0 0 0 0 0 0 0 0 0 0 0 0 0 0 0 0 0 0 0 0 0 0 0 0 0 0 0 0 0 0 0 0 0 0 0 0 0 0 0 0 0
0 0 0 0 0 0 0 0 0 0 0 0 0 0 0 0 0 0 0 0 0 0 0 0 0 0 0 0 0 0 0 0 0 0 0 0 0 0 0 0 0 0 0
Wind_Speed
11 10 9 9 9 9 8 8 8 8 6 4 3 2 1 1 0 1 2 1 0 1 1 2 2 3 3 4 4 4 4 3 4 3 1 1 1 2 1 1 2 4 4
10 9 8 9 9 9 8 8 8 7 6 4 3 2 2 1 1 2 3 2 1 2 2 1 2 3 3 4 4 4 3 4 5 4 3 2 2 1 1 2 2 3 3
9 9 9 9 9 9 9 8 8 8 7 6 4 3 2 1 2 2 2 2 2 2 2 2 2 2 3 3 4 4 5 4 4 4 4 5 5 3 1 2 2 3 3
9 8 8 8 8 8 8 9 8 8 8 7 6 5 4 3 3 2 2 2 2 2 2 3 3 2 2 2 3 3 4 5 4 4 4 3 4 5 4 2 2 3 4
9 9 8 8 8 8 9 9 9 9 9 8 8 6 5 4 3 3 4 3 2 3 3 3 2 2 2 2 2 2 2 3 4 3 3 4 2 3 4 4 4 3 3
10 9 8 8 8 8 8 8 9 9 9 9 9 8 7 6 6 5 5 3 3 3 5 4 3 3 2 2 2 2 2 2 3 3 3 3 3 4 4 4 6 5 3
10 9 8 8 8 8 8 8 9 9 9 9 9 8 7 7 7 6 5 5 4 4 5 4 3 3 3 2 2 1 1 1 2 2 2 2 2 3 3 6 5 5 3
10 9 8 8 7 8 8 8 9 8 8 8 8 8 7 5 5 6 5 5 4 4 5 4 3 3 3 3 3 2 1 1 1 1 1 1 1 2 3 5 7 6 3
11 10 9 7 8 8 8 8 8 8 8 8 7 7 8 7 6 6 6 5 5 4 5 5 4 4 4 3 3 3 3 2 2 1 1 1 2 2 3 4 6 7 6
11 10 8 8 7 7 7 7 7 7 7 7 6 6 7 6 6 6 7 6 6 5 5 5 5 5 5 5 4 3 3 3 2 2 3 3 2 3 4 4 4 4 6
11 9 8 8 7 7 7 7 7 7 7 7 6 6 6 6 6 6 6 6 6 6 6 6 6 6 6 5 5 4 4 3 3 2 3 4 4 4 4 5 5 5 6
11 10 9 8 7 7 7 7 7 7 7 6 6 6 6 6 6 6 6 5 6 6 6 6 6 6 6 6 5 5 5 4 4 3 4 5 4 5 5 5 6 6 6
11 10 8 7 7 6 6 6 7 6 6 6 6 6 6 6 6 5 5 5 6 6 6 6 7 7 6 6 6 6 5 5 5 5 5 5 5 6 5 6 6 7 8
10 10 8 7 6 6 6 6 6 6 6 6 6 6 5 5 5 5 5 5 6 6 7 7 7 8 8 8 7 6 7 7 7 7 7 6 6 6 7 7 8 8 8
10 9 8 7 6 6 6 6 6 5 5 5 5 5 5 5 5 6 6 6 7 8 7 8 8 8 8 8 7 6 8 8 9 9 9 10 12 12 9 8 7 8 7
10 9 8 7 6 6 6 6 5 5 4 5 5 5 5 5 5 5 6 6 7 7 8 9 9 10 9 13 13 8 7 7 8 8 8 10 11 14 15 15 12 9 7
9 9 7 6 6 6 6 5 5 4 4 5 5 5 5 5 5 6 6 7 7 7 8 8 8 9 12 15 15 12 7 8 7 7 7 9 10 10 9 12 13 12 11
9 8 7 7 6 6 5 5 4 4 4 5 5 5 5 6 5 6 6 6 6 6 6 7 7 8 11 14 13 11 8 8 9 9 9 9 9 9 7 9 10 10 9
8 8 7 7 6 6 5 5 4 4 5 5 5 5 5 5 5 6 6 5 5 5 6 6 7 8 9 13 13 9 6 8 9 10 11 10 9 12 11 8 9 8 6
8 8 7 7 6 5 5 4 4 4 4 5 5 4 5 5 5 5 4 4 4 5 6 7 7 8 8 12 13 9 4 6 6 7 9 13 11 11 11 7 7 7 5
8 8 7 6 6 5 4 4 5 5 5 5 5 5 5 5 5 4 3 3 4 5 6 6 6 6 7 10 14 12 5 4 5 6 6 6 10 12 11 8 6 5 2
9 8 7 6 5 5 4 5 5 5 6 6 5 5 4 4 5 3 3 4 4 5 5 5 5 5 6 7 9 13 12 9 7 6 5 5 8 8 7 5 5 5 3
8 7 7 7 5 4 4 6 5 5 6 6 5 4 5 5 4 3 3 2 3 3 4 4 4 4 3 4 8 9 11 11 6 5 5 4 4 3 3 4 5 4 1
8 7 7 7 6 5 5 5 5 5 6 6 5 4 4 4 4 3 3 4 4 4 3 4 4 4 5 5 4 3 4 4 4 3 3 2 2 2 2 2 2 2 3
7 6 6 6 7 6 5 5 5 5 5 5 5 5 5 5 5 6 6 7 6 5 5 4 4 4 5 4 5 5 5 4 4 3 1 1 1 1 1 1 1 2 2
7 7 7 7 7 6 6 5 6 6 5 4 4 4 4 4 5 6 7 11 8 10 12 9 6 6 6 4 6 7 7 7 7 3 1 1 1 2 2 2 1 2 2
Wind_Direction
93 82 73 66 60 52 45 36 32 28 19 20 6 351 359 6 23 90 84 67 316 266 248 255 241 228 224 222 223 214 197 190 159 146 134 79 83 82 66 97 100 93 92
96 83 74 64 57 48 40 38 31 27 21 13 348 329 336 344 55 63 60 41 19 348 283 264 254 235 231 221 215 210 202 199 183 173 157 169 163 97 70 81 98 104 100
100 89 71 57 52 48 40 35 30 27 20 11 2 353 359 15 47 56 61 36 18 12 345 319 286 267 245 232 217 209 211 207 204 198 182 176 180 144 119 86 88 100 101
102 91 79 66 54 49 51 43 36 30 22 20 19 12 12 16 20 16 33 43 30 19 360 336 322 306 287 261 237 215 221 207 208 215 215 199 146 152 148 120 89 89 89
104 93 81 71 59 51 55 49 41 34 26 24 24 20 24 22 19 17 20 23 32 27 11 353 337 312 302 296 267 240 222 214 217 215 206 203 180 152 145 153 147 107 73
110 100 92 82 67 54 53 50 46 38 31 30 28 25 25 24 24 22 14 13 21 23 11 5 353 340 334 318 293 254 230 229 227 227 216 193 176 176 154 148 150 133 99
118 112 99 84 70 57 51 50 50 41 32 32 31 27 25 27 31 21 18 14 16 15 7 9 3 350 343 339 332 305 260 247 243 235 226 215 195 161 146 137 138 127 112
118 109 93 81 74 67 57 53 51 46 37 34 32 32 28 30 32 26 19 19 17 13 6 8 11 8 3 1 360 353 350 338 287 273 236 186 160 158 152 142 138 129 114
118 109 99 88 76 69 62 58 56 51 44 38 34 37 34 33 32 29 27 23 17 12 15 16 15 18 18 15 18 31 27 21 25 24 58 111 117 125 125 135 144 143 144
119 111 105 94 84 78 73 66 64 61 54 48 39 42 39 37 36 36 32 27 18 14 18 24 19 25 28 26 28 34 34 39 40 57 68 74 88 108 118 126 119 119 131
124 118 110 103 96 85 75 65 62 61 56 50 46 45 42 39 41 41 36 30 21 20 24 24 28 33 31 30 32 36 36 44 50 72 91 95 100 108 115 119 122 119 117
124 119 112 105 94 84 76 71 65 62 59 55 50 48 46 42 41 40 34 30 28 26 29 31 37 42 40 34 34 37 39 42 54 70 86 95 103 108 116 121 126 127 125
126 119 112 103 94 86 81 76 70 63 61 60 55 49 48 46 42 41 36 31 31 33 36 38 39 38 39 40 42 48 50 54 58 66 78 84 92 98 103 111 116 118 120
126 119 112 103 95 87 80 75 69 64 65 64 61 54 47 45 44 44 42 40 41 42 40 42 42 42 38 34 42 57 59 62 63 64 69 71 79 93 104 104 106 113 116
127 121 116 110 102 92 84 78 73 67 65 67 67 62 52 50 50 48 45 43 45 52 49 48 45 43 41 30 35 58 71 73 74 74 75 75 79 79 87 96 103 113 118
131 125 120 117 109 102 94 88 84 80 75 71 67 67 65 64 61 59 57 57 55 55 54 51 52 47 38 25 32 46 64 73 81 87 88 87 82 84 86 89 91 96 107
132 127 124 117 109 104 99 95 90 85 81 78 73 70 71 73 68 67 66 64 62 61 60 56 55 51 31 25 29 38 59 64 67 71 77 84 79 75 86 89 84 76 75
134 129 126 120 116 111 105 99 97 97 92 84 77 73 78 77 70 64 61 62 64 66 66 62 57 53 35 25 27 38 61 61 61 61 65 72 66 58 65 86 83 75 63
126 125 125 124 121 115 113 114 110 100 93 86 76 73 79 84 79 71 67 65 69 70 71 66 59 54 37 27 30 40 69 67 63 61 57 61 60 48 61 81 90 90 85
121 123 124 126 124 119 121 116 110 105 97 91 85 80 82 82 81 76 72 77 80 80 78 70 61 58 48 33 33 36 74 85 85 78 67 57 55 52 58 67 78 81 79
124 127 127 124 119 120 119 112 104 100 98 93 89 82 85 91 89 84 78 79 82 84 84 81 70 60 51 44 39 38 44 64 86 83 71 53 51 55 56 63 70 74 60
130 130 125 122 121 123 119 111 105 105 103 98 95 90 84 89 92 89 86 86 93 96 92 92 85 69 57 45 42 44 46 53 65 72 74 65 54 52 49 55 42 28 4
128 129 127 125 126 125 120 114 113 112 109 106 101 94 84 76 75 79 87 88 86 93 101 100 95 87 80 60 48 51 54 56 64 72 79 76 57 37 47 45 17 2 3
134 138 136 136 136 130 119 115 115 113 117 119 119 113 102 96 81 58 53 54 55 61 74 83 87 84 65 44 27 41 67 76 73 83 92 78 50 17 18 22 15 36 50
138 141 138 136 131 126 121 122 120 121 122 123 122 120 113 103 84 65 48 60 48 47 60 57 60 72 74 43 32 32 28 25 26 339 244 198 182 153 115 77 64 65 68
145 143 142 138 132 128 124 122 122 121 120 122 126 119 119 125 120 109 84 54 66 65 66 64 74 76 83 74 41 33 18 8 3 350 309 127 115 104 97 90 80 73 61